Weather History for Camdenton, MO

Change the Weather History Date:

Saturday, August 9, 2014

  Actual Average (KAIZ) Record (KAIZ)
Temperature  
Mean Temperature 73 °F -  
Max Temperature 80 °F 84 °F 100 °F (2006)
Min Temperature 66 °F 63 °F 57 °F (1996)
Cooling Degree Days 8    
Growing Degree Days 23 (Base 50)    
Moisture  
Dew Point 66 °F    
Average Humidity 79    
Maximum Humidity 100    
Minimum Humidity 58    
Precipitation  
Precipitation 0.00 in - - ()
Sea Level Pressure  
Sea Level Pressure 30.02 in    
Wind  
Wind Speed 2 mph (NW)    
Max Wind Speed 9 mph    
Max Gust Speed -    
Visibility 8 miles    
Events Fog    
Averages and records for this station are not official NWS values.
T = Trace of Precipitation, MM = Missing Value Source: NWS Daily Summary

Daily Weather History Graph

Daily Weather History Graph

Search for Another Location

Airport:

Trip Planner

Search our weather history database for the weather conditions in past years. The results will help you decide how hot, cold, wet, or windy it might be!

Date:

Astronomy

Aug. 09, 2014 Rise Set
Actual Time 6:20 AM CDT 8:11 PM CDT
Civil Twilight 5:52 AM CDT 8:39 PM CDT
Nautical Twilight 5:17 AM CDT 9:14 PM CDT
Astronomical Twilight 4:40 AM CDT 9:50 PM CDT
Moon 7:13 PM CDT (8/9) 5:02 AM CDT (8/9)
Length of Visible Light 14h 47m
Length of Day
13h 50m
Waxing Gibbous, 98% of the Moon is Illuminated
Aug 9
Waxing Gibbous
Aug 10
Full
Aug 17
Last Quarter
Aug 25
New
Sep 2
First Quarter

Hourly Weather History & Observations

Time (CDT) Temp. Heat Index Dew Point Humidity Pressure Visibility Wind Dir Wind Speed Gust Speed Precip Events Conditions
12:10 AM 68.0 °F - 66.2 °F 94% 30.01 in 7.0 mi Calm Calm - N/A   Mostly Cloudy
12:35 AM 69.8 °F - 68.0 °F 94% 30.02 in 7.0 mi Calm Calm - N/A   Overcast
12:55 AM 69.8 °F - 68.0 °F 94% 30.01 in 5.0 mi NW 3.5 mph - N/A   Overcast
1:15 AM 69.8 °F - 68.0 °F 94% 30.00 in 7.0 mi Calm Calm - N/A   Overcast
1:35 AM 69.8 °F - 68.0 °F 94% 30.00 in 5.0 mi Calm Calm - N/A   Overcast
1:55 AM 68.0 °F - 68.0 °F 100% 29.99 in 4.0 mi Calm Calm - N/A   Overcast
2:15 AM 68.0 °F - 68.0 °F 100% 29.99 in 3.0 mi Calm Calm - N/A   Overcast
2:35 AM 68.0 °F - 66.2 °F 94% 29.99 in 3.0 mi Calm Calm - N/A   Overcast
2:55 AM 68.0 °F - 66.2 °F 94% 29.99 in 4.0 mi Calm Calm - N/A   Overcast
3:15 AM 68.0 °F - 66.2 °F 94% 29.99 in 4.0 mi Calm Calm - N/A   Overcast
3:35 AM 68.0 °F - 66.2 °F 94% 29.99 in 5.0 mi Calm Calm - N/A   Overcast
3:55 AM 68.0 °F - 66.2 °F 94% 29.99 in 4.0 mi Calm Calm - N/A   Scattered Clouds
4:15 AM 68.0 °F - 66.2 °F 94% 29.99 in 2.0 mi Calm Calm - N/A   Clear
4:35 AM 66.2 °F - 64.4 °F 94% 29.99 in 0.5 mi SE 3.5 mph - N/A Fog Fog
4:55 AM 66.2 °F - 64.4 °F 94% 29.99 in 2.5 mi SSE 3.5 mph - N/A   Scattered Clouds
5:15 AM 66.2 °F - 64.4 °F 94% 30.00 in 4.0 mi Calm Calm - N/A   Clear
5:35 AM 68.0 °F - 64.4 °F 88% 30.00 in 5.0 mi SW 3.5 mph - N/A   Clear
5:55 AM 66.2 °F - 64.4 °F 94% 30.01 in 4.0 mi Calm Calm - N/A   Clear
6:15 AM 66.2 °F - 64.4 °F 94% 30.01 in 5.0 mi WSW 3.5 mph - N/A   Mostly Cloudy
6:35 AM 66.2 °F - 64.4 °F 94% 30.02 in 5.0 mi WSW 3.5 mph - N/A   Overcast
6:55 AM 68.0 °F - 64.4 °F 88% 30.03 in 5.0 mi SSW 4.6 mph - N/A   Overcast
7:15 AM 68.0 °F - 66.2 °F 94% 30.03 in 5.0 mi Calm Calm - N/A   Mostly Cloudy
7:35 AM 68.0 °F - 66.2 °F 94% 30.03 in 4.0 mi SW 4.6 mph - N/A   Mostly Cloudy
7:55 AM 68.0 °F - 68.0 °F 100% 30.04 in 5.0 mi WSW 4.6 mph - N/A   Overcast
8:15 AM 68.0 °F - 68.0 °F 100% 30.04 in 4.0 mi WSW 4.6 mph - N/A   Overcast
8:35 AM 69.8 °F - 68.0 °F 94% 30.04 in 5.0 mi West 4.6 mph - N/A   Overcast
8:55 AM 69.8 °F - 68.0 °F 94% 30.04 in 7.0 mi West 3.5 mph - N/A   Overcast
9:15 AM 71.6 °F - 68.0 °F 88% 30.04 in 10.0 mi West 5.8 mph - N/A   Overcast
9:35 AM 71.6 °F - 66.2 °F 83% 30.04 in 10.0 mi WNW 3.5 mph - N/A   Mostly Cloudy
9:55 AM 73.4 °F - 64.4 °F 73% 30.04 in 10.0 mi NW 6.9 mph - N/A   Overcast
10:15 AM 75.2 °F - 64.4 °F 69% 30.04 in 10.0 mi NW 9.2 mph - N/A   Mostly Cloudy
10:35 AM 75.2 °F - 64.4 °F 69% 30.04 in 10.0 mi NW 5.8 mph - N/A   Mostly Cloudy
10:55 AM 75.2 °F - 64.4 °F 69% 30.04 in 10.0 mi North 3.5 mph - N/A   Scattered Clouds
11:15 AM 77.0 °F - 66.2 °F 69% 30.04 in 10.0 mi NNE 5.8 mph - N/A   Scattered Clouds
11:35 AM 77.0 °F - 64.4 °F 65% 30.05 in 10.0 mi NNW 5.8 mph - N/A   Mostly Cloudy
11:55 AM 77.0 °F - 64.4 °F 65% 30.05 in 10.0 mi North 4.6 mph - N/A   Mostly Cloudy
12:15 PM 77.0 °F - 64.4 °F 65% 30.04 in 10.0 mi Calm Calm - N/A   Mostly Cloudy
12:35 PM 78.8 °F - 66.2 °F 65% 30.04 in 10.0 mi North 3.5 mph - N/A   Mostly Cloudy
12:55 PM 80.6 °F 82.7 °F 66.2 °F 61% 30.03 in 10.0 mi North 4.6 mph - N/A   Scattered Clouds
1:15 PM 80.6 °F 82.7 °F 66.2 °F 61% 30.03 in 10.0 mi East 3.5 mph - N/A   Scattered Clouds
1:35 PM 80.6 °F 82.7 °F 66.2 °F 61% 30.04 in 10.0 mi Calm Calm - N/A   Scattered Clouds
1:55 PM 80.6 °F 82.7 °F 66.2 °F 61% 30.04 in 10.0 mi NNW 6.9 mph - N/A   Mostly Cloudy
2:15 PM 80.6 °F 82.7 °F 66.2 °F 61% 30.04 in 10.0 mi North 4.6 mph - N/A   Mostly Cloudy
2:35 PM 80.6 °F 82.7 °F 66.2 °F 61% 30.02 in 10.0 mi North 4.6 mph - N/A   Mostly Cloudy
2:55 PM 80.6 °F 82.7 °F 66.2 °F 61% 30.02 in 10.0 mi NNE 3.5 mph - N/A   Scattered Clouds
3:15 PM 80.6 °F 82.7 °F 66.2 °F 61% 30.01 in 10.0 mi North 3.5 mph - N/A   Mostly Cloudy
3:35 PM 80.6 °F 82.7 °F 66.2 °F 61% 30.01 in 10.0 mi Calm Calm - N/A   Overcast
4:15 PM 80.6 °F 82.3 °F 64.4 °F 58% 30.01 in 10.0 mi Calm Calm - N/A   Overcast
4:35 PM 80.6 °F 82.7 °F 66.2 °F 61% 30.01 in 10.0 mi Calm Calm - N/A   Overcast
4:55 PM 80.6 °F 82.7 °F 66.2 °F 61% 30.00 in 10.0 mi Calm Calm - N/A   Overcast
5:15 PM 80.6 °F 82.7 °F 66.2 °F 61% 30.01 in 10.0 mi Calm Calm - N/A   Scattered Clouds
5:35 PM 80.6 °F 82.7 °F 66.2 °F 61% 30.02 in 10.0 mi Calm Calm - N/A   Clear
5:55 PM 80.6 °F 82.7 °F 66.2 °F 61% 30.02 in 10.0 mi Calm Calm - N/A   Clear
6:15 PM 80.6 °F 82.7 °F 66.2 °F 61% 30.02 in 10.0 mi Calm Calm - N/A   Scattered Clouds
6:35 PM 80.6 °F 82.3 °F 64.4 °F 58% 30.01 in 10.0 mi Calm Calm - N/A   Scattered Clouds
6:55 PM 80.6 °F 82.7 °F 66.2 °F 61% 30.00 in 10.0 mi Calm Calm - N/A   Clear
7:15 PM 80.6 °F 82.7 °F 66.2 °F 61% 30.00 in 10.0 mi Calm Calm - N/A   Clear
7:35 PM 78.8 °F - 68.0 °F 69% 30.00 in 10.0 mi Calm Calm - N/A   Clear
7:55 PM 78.8 °F - 68.0 °F 69% 29.99 in 10.0 mi Calm Calm - N/A   Clear
8:15 PM 77.0 °F - 68.0 °F 74% 29.99 in 10.0 mi NNW 3.5 mph - N/A   Clear
8:35 PM 75.2 °F - 68.0 °F 78% 29.99 in 10.0 mi NNW 4.6 mph - N/A   Clear
8:55 PM 73.4 °F - 68.0 °F 83% 29.99 in 10.0 mi NW 4.6 mph - N/A   Clear
9:15 PM 73.4 °F - 68.0 °F 83% 29.99 in 10.0 mi Calm Calm - N/A   Clear
9:35 PM 75.2 °F - 68.0 °F 78% 30.00 in 10.0 mi Calm Calm - N/A   Clear
9:55 PM 71.6 °F - 68.0 °F 88% 30.01 in 10.0 mi Calm Calm - N/A   Clear
10:15 PM 71.6 °F - 68.0 °F 88% 30.01 in 10.0 mi Calm Calm - N/A   Clear
11:15 PM 71.6 °F - 68.0 °F 88% 30.02 in 10.0 mi Calm Calm - N/A   Clear
11:35 PM 69.8 °F - 68.0 °F 94% 30.02 in 10.0 mi Calm Calm - N/A   Clear
11:55 PM 71.6 °F - 68.0 °F 88% 30.03 in 10.0 mi Calm Calm - N/A   Mostly Cloudy